Weather History for LEVX - October, 2012

Change the Weather History Date:

Saturday, October 13, 2012

  Actual Average Record
Temperature  
Mean Temperature 54 °F -  
Max Temperature 63 °F 60 °F 86 °F (2011)
Min Temperature 44 °F 48 °F 44 °F (2004)
Degree Days  
Heating Degree Days 12    
Growing Degree Days 4 (Base 50)    
Moisture  
Dew Point 46 °F    
Average Humidity 79    
Maximum Humidity 94    
Minimum Humidity 54    
Precipitation  
Precipitation 0.00 in 0.27 in - ()
Sea Level Pressure  
Sea Level Pressure 30.05 in    
Wind  
Wind Speed 4 mph ()    
Max Wind Speed 9 mph    
Max Gust Speed -    
Visibility 7.2 miles    
Events Fog    
Averages and records for this station are not official NWS values.
T = Trace of Precipitation, MM = Missing Value Source: Averaged Metar Reports

Daily Weather History Graph

Daily Weather History Graph

Search for Another Location

Airport or City:

Trip Planner

Search our weather history database for the weather conditions in past years. The results will help you decide how hot, cold, wet, or windy it might be!

Date:

Astronomy

Oct. 13, 2012 Rise Set
Actual Time 8:45 AM CEST 7:55 PM CEST
Civil Twilight 8:17 AM CEST 8:23 PM CEST
Nautical Twilight 7:44 AM CEST 8:55 PM CEST
Astronomical Twilight 7:12 AM CEST 9:28 PM CEST
Moon 6:17 AM CEST (10/13) 6:32 PM CEST (10/13)
Length of Visible Light 12h 06m
Length of Day
11h 10m
Waning Crescent, 6% of the Moon is Illuminated
Oct 13
Waning Crescent
Oct 15
New
Oct 22
First Quarter
Oct 29
Full
Nov 7
Last Quarter

Hourly Weather History & Observations

Time (CEST) Temp. Dew Point Humidity Pressure Visibility Wind Dir Wind Speed Gust Speed Precip Events Conditions
12:00 AM 50.0 °F 46.4 °F 87% 30.09 in 6.2 mi NNE 6.9 mph - N/A   Scattered Clouds
12:30 AM 50.0 °F 46.4 °F 87% 30.09 in 6.2 mi NNE 6.9 mph - N/A   Scattered Clouds
1:00 AM 50.0 °F 46.4 °F 87% 30.09 in 6.2 mi NNE 5.8 mph - N/A   Scattered Clouds
1:30 AM 50.0 °F 46.4 °F 87% 30.09 in 6.2 mi NNE 4.6 mph - N/A   Scattered Clouds
2:00 AM 51 °F 47 °F 80% 30.11 in 12 mi North 4.6 mph - -   Scattered Clouds
2:00 AM 48.2 °F 44.6 °F 87% 30.09 in 6.2 mi North 4.6 mph - N/A   Partly Cloudy
2:30 AM 48.2 °F 44.6 °F 87% 30.09 in 6.2 mi North 4.6 mph - N/A   Partly Cloudy
3:00 AM 48.2 °F 44.6 °F 87% 30.09 in 6.2 mi NNE 4.6 mph - N/A   Partly Cloudy
3:30 AM 48.2 °F 46.4 °F 93% 30.06 in 6.2 mi NNE 4.6 mph - N/A   Partly Cloudy
4:00 AM 48.2 °F 46.4 °F 93% 30.06 in 5.6 mi North 5.8 mph - N/A   Partly Cloudy
5:00 AM 46.4 °F 41.0 °F 81% 30.06 in 5.6 mi Calm Calm - N/A   Partly Cloudy
5:30 AM 46.4 °F 41.0 °F 81% 30.06 in - Calm Calm - N/A   Clear
6:00 AM 44.6 °F 42.8 °F 93% 30.06 in - Calm Calm - N/A   Clear
7:00 AM 44.6 °F 42.8 °F 93% 30.06 in - Calm Calm - N/A   Clear
7:30 AM 44.6 °F 42.8 °F 93% 30.06 in - Variable 1.2 mph - N/A   Clear
8:00 AM 46 °F 45 °F 94% 30.09 in 19 mi Calm Calm - -   Clear
8:00 AM 44.6 °F 41.0 °F 87% 30.06 in - Calm Calm - N/A   Clear
8:30 AM 44.6 °F 41.0 °F 87% 30.06 in - Calm Calm - N/A   Clear
9:00 AM 44.6 °F 41.0 °F 87% 30.06 in 6.2 mi Variable 1.2 mph - N/A Fog Patches of Fog
9:30 AM 48.2 °F 46.4 °F 93% 30.06 in 6.2 mi Variable 2.3 mph - N/A Fog Patches of Fog
10:00 AM 50.0 °F 46.4 °F 87% 30.09 in 6.2 mi Variable 2.3 mph - N/A Fog Patches of Fog
10:30 AM 51.8 °F 48.2 °F 88% 30.09 in 6.2 mi Variable 2.3 mph - N/A Fog Patches of Fog
11:00 AM 51.8 °F 48.2 °F 88% 30.09 in 6.2 mi SSW 4.6 mph - N/A Fog Patches of Fog
12:30 PM 55.4 °F 50.0 °F 82% 30.09 in 6.2 mi SSW 5.8 mph - N/A Fog Patches of Fog
1:00 PM 57.2 °F 51.8 °F 82% 30.09 in 6.2 mi SSW 5.8 mph - N/A Fog Patches of Fog
1:30 PM 59.0 °F 51.8 °F 77% 30.06 in 6.2 mi SSW 4.6 mph - N/A   Partly Cloudy
2:00 PM 58 °F 46 °F 54% 30.08 in 19 mi South 4.6 mph - -   Scattered Clouds
2:00 PM 57.2 °F 44.6 °F 63% 30.06 in 6.2 mi SSW 3.5 mph - N/A   Partly Cloudy
2:30 PM 60.8 °F 46.4 °F 59% 30.06 in 6.2 mi Variable 2.3 mph - N/A   Partly Cloudy
3:00 PM 60.8 °F 48.2 °F 63% 30.04 in 6.2 mi SSW 4.6 mph - N/A   Partly Cloudy
3:30 PM 60.8 °F 48.2 °F 63% 30.04 in 6.2 mi SSW 4.6 mph - N/A   Partly Cloudy
4:00 PM 60.8 °F 48.2 °F 63% 30.04 in 6.2 mi SSW 3.5 mph - N/A   Partly Cloudy
4:30 PM 62.6 °F 48.2 °F 59% 30.04 in 6.2 mi West 3.5 mph - N/A   Partly Cloudy
5:00 PM 60.8 °F 46.4 °F 59% 30.04 in 6.2 mi West 6.9 mph - N/A   Partly Cloudy
5:30 PM 62.6 °F 48.2 °F 59% 30.01 in 6.2 mi West 4.6 mph - N/A   Partly Cloudy
6:00 PM 62.6 °F 48.2 °F 59% 30.01 in 6.2 mi WSW 5.8 mph - N/A   Partly Cloudy
6:30 PM 62.6 °F 48.2 °F 59% 30.01 in 6.2 mi WSW 5.8 mph - N/A   Partly Cloudy
7:00 PM 57.2 °F 46.4 °F 67% 30.01 in 6.2 mi WSW 5.8 mph - N/A   Partly Cloudy
7:30 PM 57.2 °F 48.2 °F 72% 30.01 in 6.2 mi WSW 3.5 mph - N/A   Partly Cloudy
8:00 PM 58 °F 51 °F 70% 30.01 in 16 mi South 1.2 mph - -   Partly Cloudy
8:00 PM 55.4 °F 48.2 °F 77% 30.01 in 6.2 mi Variable 1.2 mph - N/A   Scattered Clouds
8:30 PM 55.4 °F 48.2 °F 77% 30.01 in 6.2 mi Variable 1.2 mph - N/A   Scattered Clouds
9:00 PM 55.4 °F 48.2 °F 77% 29.98 in 6.2 mi South 4.6 mph - N/A   Mostly Cloudy
9:30 PM 55.4 °F 48.2 °F 77% 29.98 in 6.2 mi South 6.9 mph - N/A   Mostly Cloudy
10:00 PM 53.6 °F 48.2 °F 82% 29.98 in 6.2 mi South 5.8 mph - N/A   Mostly Cloudy
10:30 PM 53.6 °F 48.2 °F 82% 29.98 in 6.2 mi South 8.1 mph - N/A   Mostly Cloudy
11:00 PM 53.6 °F 48.2 °F 82% 29.98 in 6.2 mi South 9.2 mph - N/A   Mostly Cloudy